Probability
23 23 23 16 16 16 16 13 13 10 3 3 3 3 3 6 10 6 3 3 0 0 0 0 0 3 3 3 0 0 0 0 0 0 0 0 0 0 0 0 0 0 0
23 19 16 16 16 13 10 10 10 6 3 3 3 3 3 0 0 0 0 0 0 0 0 0 0 0 0 0 0 0 0 0 0 0 0 0 0 0 0 3 0 0 0
16 16 16 13 10 10 10 10 6 6 6 3 3 0 0 0 0 0 0 0 0 0 0 0 0 0 0 0 0 0 0 0 0 0 0 0 0 0 0 0 0 0 0
16 16 10 10 10 10 10 6 6 6 3 3 0 0 0 0 0 0 0 0 0 0 0 0 0 0 0 0 0 0 0 0 0 0 0 0 0 0 0 0 0 0 0
13 10 10 10 10 6 6 6 6 3 3 3 0 0 0 0 0 0 0 0 0 0 0 0 0 0 0 0 0 0 0 0 0 0 0 0 0 0 0 0 0 0 3
6 6 6 3 3 3 3 3 0 0 0 0 0 0 0 0 0 0 0 0 0 0 0 0 0 0 0 0 0 0 0 0 0 0 0 0 0 0 0 0 0 0 0
3 3 3 3 3 3 0 0 0 0 0 0 0 0 0 0 0 0 0 0 0 3 3 3 0 0 0 0 0 0 0 0 0 0 0 0 0 0 0 0 0 0 0
3 3 3 3 3 0 0 0 0 0 0 0 0 0 3 0 0 0 0 0 3 0 0 0 0 3 0 0 0 0 3 0 0 0 0 3 0 0 0 0 0 0 0
3 3 3 0 0 0 0 0 0 0 0 0 0 0 3 3 0 0 0 0 3 0 0 0 0 0 0 0 0 0 3 3 0 0 0 0 0 0 0 0 0 0 0
0 0 0 0 0 0 0 0 0 3 0 0 0 0 0 0 0 0 0 0 0 0 0 0 0 0 0 0 0 0 3 3 0 0 0 0 0 0 0 0 0 0 0
0 0 0 0 0 0 3 0 0 0 0 0 0 0 3 0 0 0 0 0 0 0 0 0 0 0 0 0 0 0 0 0 0 0 3 3 6 10 0 0 0 0 0
0 0 0 0 0 0 0 0 0 0 0 0 0 0 3 0 0 0 0 0 0 0 0 0 0 0 0 0 0 0 0 0 0 0 0 0 0 0 3 0 0 3 10
0 0 0 0 3 3 0 0 0 0 0 0 0 0 0 0 0 0 0 0 0 0 0 0 0 0 0 0 0 0 0 0 0 0 0 0 0 0 3 6 10 10 10
3 3 3 0 0 0 0 0 0 0 0 0 0 0 0 0 0 0 0 0 0 0 0 0 0 0 0 0 0 0 0 0 0 0 0 0 0 0 3 3 0 0 3
3 3 3 0 0 0 0 0 0 0 0 0 0 0 0 0 0 0 0 0 0 0 0 0 0 0 0 0 0 0 0 0 0 0 0 3 3 0 0 0 0 0 0
3 0 0 0 0 0 0 0 0 0 0 0 0 0 0 0 0 0 0 0 0 0 0 0 0 0 0 0 0 0 0 0 0 0 0 0 0 0 0 0 0 0 0
0 0 0 0 0 0 0 0 0 0 0 0 0 0 0 0 0 0 0 0 0 0 0 0 0 0 0 0 0 0 0 0 3 3 0 0 0 0 0 0 0 0 0
0 0 0 0 0 0 0 0 0 0 0 0 0 0 0 0 0 0 0 0 0 0 0 0 0 0 0 0 0 0 0 0 0 0 0 0 0 0 0 0 0 0 0
0 0 0 0 0 0 0 0 0 0 0 0 0 0 0 0 0 0 0 0 0 0 0 0 0 0 0 0 0 0 0 0 0 0 0 0 0 0 0 0 0 0 0
0 0 0 0 0 0 0 0 0 0 0 0 0 0 0 0 0 0 0 0 0 0 0 0 0 0 0 0 0 0 0 0 0 0 0 0 0 0 0 0 0 0 0
0 0 0 0 0 0 0 0 0 0 0 0 0 0 0 0 0 0 0 0 0 0 0 0 0 0 0 0 0 0 0 0 0 0 0 0 0 0 0 0 0 0 0
0 0 0 0 0 0 0 0 0 0 0 0 0 0 0 0 0 0 0 0 0 0 0 0 0 0 0 0 0 0 0 0 0 0 0 0 0 0 0 0 0 0 0
0 0 0 0 0 0 0 0 0 0 0 0 0 0 0 0 0 0 0 0 0 0 0 0 0 0 0 0 0 0 0 0 0 0 0 0 0 0 0 0 0 0 0
0 0 0 0 0 0 0 0 0 0 0 0 0 0 0 0 0 0 0 0 0 0 0 0 0 0 0 0 0 0 0 0 0 0 0 0 0 0 0 0 0 0 0
0 0 0 0 0 0 0 0 0 0 0 0 0 0 0 0 0 0 0 0 0 0 0 0 0 0 0 0 0 0 0 0 0 0 0 0 0 0 0 0 0 0 0
0 0 0 0 0 0 0 0 0 0 0 0 0 0 0 0 0 0 0 0 0 0 0 0 0 0 0 0 0 0 0 0 0 0 0 0 0 0 0 0 0 0 0
Height
5790 5787 5784 5780 5776 5773 5770 5766 5763 5760 5757 5755 5752 5750 5748 5746 5745 5743 5742 5740 5739 5739 5738 5737 5737 5736 5736 5736 5736 5736 5737 5737 5738 5739 5739 5740 5741 5742 5743 5744 5746 5747 5748
5785 5782 5778 5775 5771 5767 5764 5760 5757 5754 5752 5749 5747 5744 5742 5740 5739 5737 5736 5734 5733 5732 5732 5731 5730 5730 5729 5729 5730 5730 5731 5731 5732 5732 5733 5734 5735 5736 5737 5738 5739 5741 5742
5780 5776 5773 5769 5766 5762 5758 5755 5752 5749 5746 5743 5741 5739 5736 5735 5733 5731 5729 5728 5727 5726 5725 5725 5724 5724 5723 5723 5724 5724 5725 5725 5726 5726 5727 5728 5729 5730 5731 5732 5734 5735 5737
5775 5771 5768 5764 5761 5757 5754 5750 5747 5744 5741 5738 5736 5733 5731 5729 5727 5725 5724 5722 5721 5720 5719 5718 5718 5717 5717 5717 5718 5718 5719 5719 5720 5720 5722 5723 5724 5725 5726 5727 5729 5730 5731
5771 5767 5764 5760 5757 5753 5750 5746 5743 5740 5737 5734 5732 5729 5727 5724 5722 5720 5719 5717 5716 5715 5714 5713 5712 5712 5712 5712 5712 5712 5713 5714 5714 5715 5716 5717 5718 5720 5721 5722 5723 5724 5725
5767 5763 5760 5756 5752 5749 5746 5743 5740 5737 5734 5731 5728 5726 5723 5721 5718 5716 5714 5713 5711 5710 5709 5709 5708 5708 5707 5707 5707 5707 5708 5709 5710 5711 5712 5713 5713 5714 5715 5716 5718 5719 5719
5763 5759 5755 5752 5749 5746 5743 5740 5737 5734 5731 5728 5726 5723 5720 5717 5715 5713 5711 5709 5708 5706 5705 5704 5704 5704 5703 5703 5703 5703 5704 5704 5705 5706 5707 5708 5709 5710 5711 5711 5712 5713 5714
5760 5756 5752 5749 5746 5743 5740 5737 5734 5731 5728 5726 5723 5720 5718 5715 5713 5711 5708 5707 5705 5704 5703 5701 5701 5700 5700 5700 5700 5700 5700 5701 5701 5702 5703 5704 5704 5705 5706 5707 5707 5708 5709
5757 5753 5749 5746 5743 5740 5737 5735 5732 5729 5726 5724 5721 5719 5716 5714 5711 5709 5707 5705 5704 5702 5701 5699 5699 5698 5698 5697 5697 5697 5697 5697 5698 5698 5699 5700 5700 5701 5702 5703 5703 5704 5705
5754 5751 5747 5744 5741 5738 5736 5733 5731 5728 5725 5723 5720 5717 5715 5713 5711 5708 5706 5704 5703 5701 5699 5698 5697 5696 5696 5695 5695 5695 5694 5694 5695 5695 5696 5696 5697 5698 5698 5699 5699 5700 5700
5752 5749 5746 5743 5740 5737 5734 5732 5730 5727 5725 5722 5719 5717 5714 5712 5710 5707 5706 5704 5702 5700 5698 5697 5696 5695 5694 5693 5693 5692 5692 5692 5692 5693 5693 5694 5694 5694 5695 5695 5695 5696 5696
5750 5748 5744 5741 5739 5736 5734 5731 5729 5726 5724 5721 5719 5716 5714 5711 5709 5707 5705 5703 5701 5699 5697 5696 5694 5693 5692 5691 5691 5690 5690 5690 5690 5690 5690 5691 5691 5691 5691 5692 5692 5692 5692
5749 5747 5744 5741 5738 5736 5734 5731 5728 5726 5723 5721 5718 5716 5713 5711 5708 5706 5704 5701 5700 5698 5696 5694 5693 5691 5690 5690 5689 5688 5688 5687 5687 5687 5687 5688 5688 5688 5688 5688 5688 5688 5688
5749 5746 5744 5741 5738 5736 5733 5731 5728 5725 5722 5720 5717 5715 5712 5710 5707 5705 5702 5700 5698 5696 5694 5693 5691 5689 5688 5688 5687 5686 5686 5685 5685 5685 5684 5684 5684 5684 5684 5684 5684 5684 5684
5748 5746 5743 5741 5738 5736 5733 5731 5728 5725 5722 5719 5717 5714 5712 5709 5707 5704 5701 5699 5697 5695 5693 5691 5689 5688 5686 5685 5684 5683 5683 5682 5682 5681 5681 5681 5680 5680 5680 5680 5680 5679 5679
5748 5746 5743 5741 5738 5736 5733 5731 5728 5725 5722 5719 5717 5714 5711 5708 5706 5703 5701 5698 5696 5694 5692 5690 5688 5686 5684 5683 5682 5681 5680 5679 5678 5678 5677 5677 5676 5676 5676 5675 5675 5674 5674
5748 5745 5743 5741 5738 5736 5733 5731 5728 5725 5722 5719 5716 5713 5710 5708 5705 5702 5700 5697 5695 5692 5690 5688 5686 5684 5682 5681 5679 5678 5677 5676 5675 5674 5673 5673 5672 5671 5671 5670 5669 5668 5668
5747 5745 5743 5741 5739 5736 5733 5731 5728 5725 5722 5719 5716 5713 5710 5707 5704 5701 5699 5696 5693 5691 5688 5686 5684 5682 5680 5678 5676 5675 5673 5672 5671 5670 5669 5668 5667 5666 5665 5664 5663 5662 5661
5747 5745 5743 5741 5739 5736 5733 5731 5728 5725 5722 5719 5716 5713 5710 5706 5703 5700 5697 5695 5692 5689 5686 5684 5681 5679 5677 5675 5673 5671 5669 5668 5666 5665 5664 5662 5661 5660 5659 5658 5656 5655 5654
5747 5745 5743 5741 5739 5736 5733 5731 5728 5725 5722 5719 5716 5712 5709 5706 5703 5700 5697 5693 5690 5687 5685 5682 5679 5677 5674 5672 5669 5667 5665 5663 5661 5659 5658 5656 5655 5653 5652 5650 5649 5647 5646
5746 5745 5743 5740 5738 5736 5733 5730 5727 5724 5721 5718 5715 5711 5708 5705 5702 5699 5695 5692 5689 5686 5682 5679 5676 5674 5671 5668 5665 5663 5660 5658 5656 5653 5651 5649 5647 5645 5644 5642 5640 5638 5636
5746 5744 5742 5740 5737 5735 5732 5729 5727 5724 5721 5717 5714 5710 5707 5704 5700 5697 5693 5690 5686 5683 5680 5676 5673 5670 5667 5664 5661 5658 5655 5653 5650 5647 5644 5642 5639 5637 5635 5633 5630 5628 5626
5745 5743 5741 5739 5737 5734 5731 5728 5725 5722 5719 5716 5712 5709 5705 5702 5698 5695 5691 5687 5683 5680 5677 5673 5670 5666 5662 5659 5656 5652 5649 5646 5643 5640 5636 5633 5631 5628 5625 5622 5620 5617 5615
5744 5742 5740 5738 5736 5733 5730 5727 5724 5721 5717 5714 5710 5706 5703 5699 5695 5692 5688 5684 5680 5676 5672 5668 5665 5661 5657 5653 5650 5646 5642 5638 5634 5631 5627 5624 5621 5618 5615 5612 5609 5606 5604
5744 5742 5739 5737 5734 5732 5729 5725 5722 5719 5715 5712 5708 5704 5700 5696 5692 5688 5684 5680 5676 5672 5668 5664 5659 5655 5651 5647 5643 5638 5634 5630 5626 5622 5618 5614 5611 5607 5604 5601 5598 5595 5592
5743 5740 5738 5736 5733 5730 5727 5724 5720 5716 5713 5709 5705 5701 5697 5693 5689 5684 5680 5676 5671 5667 5662 5657 5653 5648 5644 5639 5635 5630 5626 5622 5617 5613 5608 5605 5601 5597 5593 5590 5587 5584 5581
Wind_Speed
26 26 26 26 25 25 25 25 25 24 24 24 24 24 23 23 24 24 24 24 24 23 23 24 23 23 23 23 23 22 22 22 22 22 23 23 23 22 22 23 23 23 22
25 24 24 25 25 25 25 25 24 24 23 24 24 24 24 24 24 24 23 23 23 23 23 23 22 22 22 22 22 21 21 21 22 22 22 22 22 22 22 21 21 21 20
23 23 24 24 24 24 24 23 23 23 23 23 23 23 23 23 23 23 22 21 21 22 22 22 22 21 21 21 20 20 20 21 21 21 20 20 21 21 20 20 20 20 20
22 22 23 23 22 22 22 21 22 22 21 22 21 21 21 22 21 21 21 20 20 20 20 20 20 20 19 19 20 20 20 20 19 19 19 19 19 19 19 19 20 20 21
21 21 22 22 22 21 20 20 20 20 20 19 18 18 19 19 19 19 19 19 18 18 18 17 17 17 17 18 18 18 18 18 18 17 18 18 19 18 18 18 18 19 19
20 21 22 22 21 20 19 19 18 18 18 17 17 17 17 17 17 17 17 17 16 16 15 15 15 15 15 16 16 16 16 16 16 17 17 17 17 17 17 17 17 18 18
20 20 21 20 19 17 17 18 17 17 17 17 16 17 17 16 15 15 14 14 14 13 13 13 13 13 13 13 13 13 14 15 16 16 16 16 16 15 16 16 16 17 17
19 20 20 18 17 16 16 15 15 16 16 16 16 16 15 15 14 14 13 12 11 11 11 12 11 11 11 12 12 12 12 13 13 14 14 15 14 14 14 15 15 15 16
18 18 18 17 16 15 15 15 14 14 14 14 14 14 13 13 13 12 12 10 10 10 10 10 10 10 9 9 10 10 10 10 10 11 12 12 12 12 12 12 13 13 14
16 17 16 15 15 14 14 14 13 13 13 13 14 14 13 12 12 12 10 10 10 10 10 9 9 9 8 8 9 9 10 10 11 10 11 11 11 11 10 12 13 13 13
14 15 15 14 14 14 13 12 12 12 12 13 13 13 12 12 12 12 11 11 11 11 10 9 9 8 9 9 9 8 9 10 10 11 10 10 10 10 11 11 12 12 13
13 14 14 13 13 12 11 11 12 12 12 12 13 13 12 13 12 12 11 11 10 10 10 10 10 9 9 9 9 9 9 9 10 10 10 11 11 10 11 11 11 12 13
12 13 13 12 12 12 12 12 12 12 12 13 13 13 14 13 13 13 12 11 11 10 10 10 10 10 9 9 9 9 9 9 9 9 10 11 11 12 12 12 12 12 13
12 12 12 12 12 12 12 13 13 13 13 13 14 14 14 13 13 13 12 11 11 11 11 10 10 10 10 10 9 10 10 9 10 10 11 12 12 13 14 14 14 14 15
10 11 12 12 12 12 13 13 13 13 14 14 14 14 14 14 14 13 13 12 11 11 12 11 11 11 11 11 11 11 11 12 12 12 12 12 13 14 15 16 16 16 16
10 11 12 12 12 13 13 13 14 14 14 15 15 15 15 16 15 14 13 13 13 13 13 12 12 11 12 11 11 11 11 12 12 13 14 14 15 15 16 17 18 18 18
10 11 12 13 14 14 14 14 14 15 15 15 15 15 16 16 16 15 14 14 14 14 14 13 13 13 12 12 12 12 12 13 13 13 14 15 16 16 17 18 18 19 20
10 11 12 13 14 14 14 14 14 15 16 16 16 16 16 16 16 15 15 15 15 15 15 15 14 14 13 13 14 14 14 15 15 16 16 17 18 18 18 19 20 21 22
10 11 12 13 13 14 14 14 15 15 16 16 16 16 17 16 16 16 16 16 15 15 15 15 15 15 15 16 16 16 17 17 18 18 19 20 21 22 22 22 23 24 24
10 11 12 12 13 14 14 15 16 17 17 17 17 18 18 17 17 17 17 16 16 16 16 16 16 16 17 17 17 18 19 19 19 20 21 22 23 24 24 25 26 26 27
10 11 11 12 13 14 15 16 17 18 18 18 18 19 18 19 19 19 18 18 18 18 17 17 18 18 19 19 19 19 19 20 21 22 23 24 24 25 26 27 28 28 29
10 11 12 12 13 15 15 16 17 18 19 19 19 19 19 20 20 20 20 20 19 20 20 20 20 20 20 20 20 20 20 22 23 24 25 26 27 28 29 30 31 32 32
11 12 12 13 14 15 16 17 18 19 19 19 20 20 20 21 21 21 22 22 22 22 22 22 22 22 22 23 22 23 24 25 26 27 27 28 29 30 31 31 32 33 33
12 12 13 14 15 16 17 19 19 19 20 21 21 21 22 22 23 23 23 23 23 24 24 24 24 24 25 26 26 27 27 28 28 29 30 31 32 32 32 33 33 34 34
12 13 14 15 16 17 18 19 20 21 21 22 22 23 23 24 24 24 24 25 25 26 26 26 26 27 27 28 29 30 30 30 31 32 32 32 33 33 32 32 33 33 33
13 14 15 16 17 18 19 20 21 21 22 23 24 24 25 25 25 26 27 27 27 28 29 29 29 30 30 30 31 31 32 33 33 33 33 33 33 33 33 33 34 34 34
Wind_Direction
304 305 307 309 309 309 308 308 307 305 303 301 300 298 297 295 292 291 289 287 286 286 284 283 280 277 275 274 273 271 268 265 264 265 265 265 265 264 262 259 256 257 255
306 307 309 309 310 310 308 307 306 306 304 303 302 299 299 297 294 292 290 288 286 284 282 281 280 277 275 273 270 267 265 265 265 265 264 262 262 262 263 261 258 256 257
309 309 310 311 312 312 311 309 307 307 305 303 303 302 300 298 296 292 290 289 286 284 282 280 278 276 276 273 269 267 266 265 265 265 263 260 259 260 262 261 260 257 255
311 312 312 312 313 313 312 311 311 310 310 310 308 306 303 300 297 294 291 291 289 286 284 282 279 276 275 273 270 269 268 267 265 262 260 260 257 258 261 260 261 260 257
313 314 315 314 313 314 315 315 316 316 316 315 313 313 311 308 302 298 296 295 292 290 289 285 283 279 277 275 272 270 267 265 264 263 259 259 258 256 258 260 261 263 258
315 316 317 316 314 314 316 317 318 319 319 319 318 318 316 313 309 305 301 298 295 292 289 286 285 282 280 277 273 269 265 263 263 263 261 261 259 256 257 259 259 259 258
318 320 320 320 318 317 316 316 318 320 324 325 322 319 320 319 316 314 307 305 303 299 294 290 287 281 279 279 276 274 269 265 264 264 262 261 261 259 258 257 257 257 257
320 323 324 325 321 317 316 318 321 323 325 326 326 326 327 326 322 319 315 314 310 308 305 299 293 289 284 280 280 278 274 269 263 262 262 261 262 265 262 259 259 258 258
323 327 327 326 325 324 324 324 326 328 329 329 332 333 333 332 328 325 325 325 320 320 319 310 300 294 293 290 288 283 277 268 265 265 264 264 264 266 263 259 257 256 258
325 329 331 330 331 330 329 328 329 330 333 334 335 335 335 335 333 330 330 328 323 324 324 320 311 299 295 296 289 284 280 273 271 272 266 262 263 265 265 260 255 256 258
326 332 336 337 337 336 336 336 335 335 334 336 337 338 337 336 334 333 334 332 329 326 323 318 314 308 299 293 289 286 284 279 274 271 267 264 264 265 267 265 256 256 260
334 338 341 342 345 347 346 345 344 342 341 341 343 342 342 341 340 337 333 328 326 324 322 320 317 315 311 302 293 292 290 284 278 269 265 266 267 268 270 269 266 265 266
346 348 350 351 352 353 353 350 347 345 344 342 342 340 341 342 341 338 335 330 327 325 324 323 322 318 314 310 301 296 293 285 278 270 269 272 273 272 270 269 270 272 274
350 354 355 355 355 355 354 352 351 348 346 345 343 342 341 341 340 339 337 336 332 329 325 321 317 315 311 305 301 295 291 286 279 277 275 276 277 275 272 271 271 272 275
351 355 357 357 357 358 356 354 352 352 350 348 347 346 344 342 340 338 338 335 333 332 330 327 320 313 309 303 300 296 291 288 287 284 283 280 278 276 275 275 274 273 274
353 359 0 358 357 355 354 353 355 354 351 349 347 345 343 341 340 339 336 333 329 327 326 325 323 317 314 310 303 296 294 294 290 287 285 283 281 279 278 278 278 277 276
359 360 1 0 358 355 354 355 357 356 353 349 346 344 341 340 339 337 335 334 331 328 325 323 320 318 317 313 307 300 297 294 293 292 289 288 286 284 283 283 282 281 280
359 360 359 360 360 359 359 0 359 358 356 353 351 349 347 346 345 343 341 338 335 332 330 327 323 321 319 314 309 305 300 296 293 292 291 289 287 287 286 285 284 284 283
359 359 360 1 1 1 1 1 359 358 358 357 354 352 351 350 349 347 344 342 340 337 332 328 326 323 319 315 311 307 303 299 295 292 290 289 288 288 287 285 284 284 284
356 357 356 356 355 357 357 355 355 354 354 354 353 351 349 348 347 345 344 341 338 335 333 331 328 324 320 316 312 308 304 302 298 295 293 291 290 289 288 287 286 286 285
348 350 350 350 349 350 349 348 349 350 351 350 350 349 348 346 344 342 339 337 335 333 330 328 326 323 320 316 313 310 307 306 303 300 296 293 291 290 289 287 286 286 285
348 350 348 347 347 348 348 346 345 346 346 345 345 344 343 341 341 339 338 336 333 331 330 328 327 324 322 319 317 315 311 308 303 301 299 297 294 292 291 290 289 287 287
348 350 349 348 348 345 343 342 342 341 342 341 340 339 337 336 335 335 334 333 331 329 326 325 323 322 320 318 315 312 310 307 305 303 301 299 298 296 294 292 290 289 288
349 347 346 345 344 342 340 339 338 338 338 339 339 337 336 335 334 333 332 331 329 327 325 323 321 318 316 316 314 312 311 309 307 306 303 301 300 298 296 294 293 291 289
346 346 345 344 342 341 340 340 338 337 337 337 337 336 336 335 333 331 329 327 326 325 324 321 319 316 315 314 313 312 311 309 308 306 305 304 302 300 298 296 294 292 290
345 345 343 342 341 341 340 340 338 337 336 335 334 334 334 333 332 330 328 326 324 323 321 319 318 316 315 314 313 311 311 310 308 306 305 304 302 301 299 298 296 295 293